Altus AFB, OK

11:20 AM CST on November 21, 2019 (GMT -0600)
Altus Air Force Base

Weather History for KLTS - October, 2019

Change the Weather History Date:

Monday, October 21, 2019

  Actual Average Record
Temperature  
Mean Temperature 58 °F -  
Max Temperature 71 °F 71 °F 95 °F (2012)
Min Temperature 40 °F 48 °F 35 °F (1999)
Degree Days  
Heating Degree Days 8    
Growing Degree Days 8 (Base 50)    
Moisture  
Dew Point 20 °F    
Average Humidity 25    
Maximum Humidity 51    
Minimum Humidity 11    
Precipitation  
Precipitation 0.00 in - - ()
Sea Level Pressure  
Sea Level Pressure 29.91 in    
Wind  
Wind Speed 9 mph ()    
Max Wind Speed 22 mph    
Max Gust Speed 31 mph    
Visibility 9.6 miles    
Events      
Averages and records for this station are not official NWS values.
T = Trace of Precipitation, MM = Missing Value Source: Averaged Metar Reports

Daily Weather History Graph

Daily Weather History Graph

Search for Another Location

Airport or City:

Astronomy

Oct. 21, 2019 Rise Set
Actual Time 7:47 AM CDT 6:55 PM CDT
Civil Twilight 7:22 AM CDT 7:20 PM CDT
Nautical Twilight 6:52 AM CDT 7:50 PM CDT
Astronomical Twilight 6:23 AM CDT 8:19 PM CDT
Moon 12:16 AM CDT 2:58 PM CDT
Length of Visible Light 11h 58m
Length of Day
11h 07m
Waning Gibbous, 48% of the Moon is Illuminated
Oct 21
Waning Gibbous
Oct 27
New
Nov 4
First Quarter
Nov 12
Full
Nov 19
Last Quarter

Hourly Weather History & Observations

Time (CDT) Temp. Windchill Dew Point Humidity Pressure Visibility Wind Dir Wind Speed Gust Speed Precip Events Conditions
12:56 AM 56.3 °F - 24.4 °F 29% 29.67 in 10.0 mi NW 10.4 mph - N/A   Clear
1:56 AM 56.7 °F - 17.1 °F 21% 29.70 in 10.0 mi North 21.9 mph 26.5 mph N/A   Clear
2:56 AM 57.0 °F - 18.5 °F 22% 29.74 in 10.0 mi North 21.9 mph 31.1 mph N/A   Clear
4:56 AM 51.3 °F - 21.6 °F 31% 29.81 in 10.0 mi NNW 8.1 mph - N/A   Clear
5:56 AM 49.8 °F - 21.9 °F 33% 29.84 in 10.0 mi WNW 4.6 mph - N/A   Haze
6:56 AM 46.4 °F 42.9 °F 23.4 °F 40% 29.89 in 10.0 mi West 6.9 mph - N/A   Clear
7:56 AM 46.0 °F 41.4 °F 21.9 °F 39% 29.91 in 10.0 mi West 9.2 mph - N/A   Clear
8:56 AM 49.8 °F - 22.6 °F 34% 29.92 in 10.0 mi West 8.1 mph - N/A   Clear
9:41 AM 55.4 °F - 23.0 °F 29% 29.94 in 1.1 mi WNW 9.2 mph - N/A   Haze
9:56 AM 55.8 °F - 22.3 °F 27% 29.96 in 10.0 mi WNW 10.4 mph - N/A   Clear
10:56 AM 60.6 °F - 22.6 °F 23% 29.95 in 10.0 mi NW 10.4 mph - N/A   Clear
11:56 AM 64.4 °F - 21.2 °F 19% 29.96 in 10.0 mi North 10.4 mph - N/A   Clear
12:56 PM 67.5 °F - 21.0 °F 17% 29.95 in 10.0 mi NNW 10.4 mph - N/A   Clear
2:00 PM 69.4 °F - 19.8 °F 15% 29.92 in 10.0 mi NW 8.1 mph 16.1 mph N/A   Clear
2:56 PM 70.9 °F - 17.6 °F 13% 29.91 in 10.0 mi NW 15.0 mph 19.6 mph N/A   Clear
3:56 PM 71.8 °F - 14.4 °F 11% 29.90 in 10.0 mi WNW 9.2 mph - N/A   Clear
4:56 PM 71.1 °F - 13.8 °F 11% 29.91 in 10.0 mi West 8.1 mph - N/A   Clear
5:56 PM 69.4 °F - 14.5 °F 12% 29.94 in 10.0 mi West 11.5 mph - N/A   Clear
6:56 PM 64.8 °F - 16.0 °F 15% 29.96 in 10.0 mi WNW 6.9 mph - N/A   Clear
7:56 PM 61.5 °F - 17.6 °F 18% 30.00 in 10.0 mi West 4.6 mph - N/A   Clear
8:56 PM 48.4 °F - 17.6 °F 29% 30.02 in 10.0 mi NW 3.5 mph - N/A   Clear
9:56 PM 44.6 °F 42.2 °F 23.0 °F 43% 30.05 in 10.0 mi North 4.6 mph - N/A   Clear
11:56 PM 40.5 °F 37.3 °F 23.7 °F 51% 30.10 in 10.0 mi NNE 4.6 mph - N/A   Clear